Rouyn Airport, Quebec

4:35 AM ADT on September 28, 2016 (GMT -0300)
Rouyn-Noranda

Weather History for CYUY - January, 2012

Change the Weather History Date:

Wednesday, January 4, 2012

  Actual Average (CYVO) Record (CYVO)
Temperature  
Mean Temperature 4 °F -  
Max Temperature 19 °F 13 °F 39 °F (2007)
Min Temperature -11 °F -3 °F -18 °F (2005)
Degree Days  
Heating Degree Days 61    
Moisture  
Dew Point 3 °F    
Average Humidity 82    
Maximum Humidity 93    
Minimum Humidity 77    
Precipitation  
Precipitation 0.00 in - - ()
Sea Level Pressure  
Sea Level Pressure 29.83 in    
Wind  
Wind Speed 8 mph ()    
Max Wind Speed 13 mph    
Max Gust Speed -    
Visibility 8.8 miles    
Events Snow    
Averages and records for this station are not official NWS values.
T = Trace of Precipitation, MM = Missing Value Source: Averaged Metar Reports

Daily Weather History Graph

Daily Weather History Graph

Search for Another Location

Airport or City:

Trip Planner

Search our weather history database for the weather conditions in past years. The results will help you decide how hot, cold, wet, or windy it might be!

Date:

Astronomy

Jan. 04, 2012 Rise Set
Actual Time 9:05 AM AST 5:34 PM AST
Civil Twilight 8:29 AM AST 6:10 PM AST
Nautical Twilight 7:50 AM AST 6:50 PM AST
Astronomical Twilight 7:12 AM AST 7:28 PM AST
Moon 1:59 PM AST (1/4) 4:48 AM AST (1/4)
Length of Visible Light 9h 41m
Length of Day
8h 28m
Waxing Gibbous, 80% of the Moon is Illuminated
Jan 4
Waxing Gibbous
Jan 9
Full
Jan 16
Last Quarter
Jan 23
New
Jan 31
First Quarter

Hourly Weather History & Observations

Time (AST) Temp. Windchill Dew Point Humidity Pressure Visibility Wind Dir Wind Speed Gust Speed Precip Events Conditions
12:00 AM -11.2 °F -26.4 °F -16.6 °F 77% 30.12 in 15.0 mi South 6.9 mph - N/A   Mostly Cloudy
1:00 AM -9.4 °F -25.6 °F -14.8 °F 77% 30.11 in 15.0 mi SSW 8.1 mph - N/A   Overcast
2:00 AM -7.6 °F -22.1 °F -13.0 °F 77% 30.07 in 15.0 mi South 6.9 mph - N/A Snow Light Snow Showers
3:00 AM -5.8 °F -24.4 °F -11.2 °F 77% 30.03 in 6.0 mi South 11.5 mph - N/A Snow Light Snow Showers
4:00 AM -4.0 °F -21.2 °F -9.4 °F 78% 30.00 in 15.0 mi South 10.4 mph - N/A Snow Light Snow Showers
5:00 AM -2.2 °F -18.0 °F -7.6 °F 78% 29.95 in 12.0 mi South 9.2 mph - N/A Snow Light Snow Showers
6:00 AM -0.4 °F -17.6 °F -5.8 °F 78% 29.90 in 2.0 mi South 11.5 mph - N/A Snow Light Snow Showers
6:30 AM - - - N/A% - 12.0 mi South 12.7 mph - N/A   Unknown
7:00 AM 1.4 °F -15.3 °F -4.0 °F 78% 29.87 in 10.0 mi South 11.5 mph - N/A Snow Light Snow Showers
8:00 AM 3.2 °F -11.3 °F -0.4 °F 85% 29.83 in 6.0 mi SSW 9.2 mph - N/A Snow Light Snow Showers
8:41 AM - - - N/A% - 2.0 mi South 5.8 mph - N/A   Unknown
9:00 AM 5.0 °F -6.9 °F 1.4 °F 85% 29.81 in 1.5 mi South 6.9 mph - N/A Snow Light Snow Showers
9:23 AM - - - N/A% - 2.5 mi South 9.2 mph - N/A   Unknown
9:34 AM - - - N/A% - 4.0 mi South 9.2 mph - N/A   Unknown
10:00 AM 6.8 °F -5.9 °F 3.2 °F 85% 29.81 in 10.0 mi South 8.1 mph - N/A Snow Light Snow Showers
11:00 AM 10.4 °F -0.4 °F 5.0 °F 79% 29.78 in 4.0 mi SSW 6.9 mph - N/A Snow Light Snow Showers
12:00 PM 10.4 °F -0.4 °F 6.8 °F 85% 29.77 in 10.0 mi SSW 6.9 mph - N/A Snow Light Snow Showers
1:00 PM 12.2 °F 0.7 °F 8.6 °F 85% 29.74 in 8.0 mi SSW 8.1 mph - N/A Snow Light Snow
1:49 PM - - - N/A% - 10.0 mi SW 9.2 mph - N/A   Unknown
2:00 PM 15.8 °F 3.4 °F 10.4 °F 79% 29.70 in 10.0 mi SW 10.4 mph - N/A Snow Light Snow
3:00 PM 15.8 °F 4.2 °F 12.2 °F 86% 29.69 in 6.0 mi WSW 9.2 mph - N/A Snow Light Snow
3:46 PM - - - N/A% - 15.0 mi WSW 6.9 mph - N/A   Unknown
4:00 PM 17.6 °F 6.4 °F 14.0 °F 86% 29.68 in 15.0 mi WSW 9.2 mph - N/A Snow Light Snow
5:00 PM 17.6 °F 8.2 °F 14.0 °F 86% 29.69 in 5.0 mi West 6.9 mph - N/A Snow Light Snow
6:00 PM 17.6 °F 7.3 °F 14.0 °F 86% 29.69 in 6.0 mi WSW 8.1 mph - N/A Snow Light Snow
6:24 PM - - - N/A% - 3.0 mi WSW 6.9 mph - N/A   Unknown
7:00 PM 17.6 °F 7.3 °F 15.8 °F 93% 29.71 in 4.0 mi West 8.1 mph - N/A Snow Light Snow
8:00 PM 19.4 °F 10.4 °F 15.8 °F 86% 29.71 in 10.0 mi WNW 6.9 mph - N/A Snow Light Snow
9:00 PM 17.6 °F 4.3 °F 14.0 °F 86% 29.73 in 12.0 mi WNW 12.7 mph - N/A Snow Light Snow
10:00 PM 17.6 °F 7.3 °F 12.2 °F 79% 29.73 in 12.0 mi West 8.1 mph - N/A Snow Light Snow
11:00 PM 15.8 °F 5.1 °F 10.4 °F 79% 29.72 in 15.0 mi West 8.1 mph - N/A Snow Light Snow